| time (UTC) | temp F | wind direction | speed MPH | gust MPH | rain 1hr in | rain 24hr in | rain mn in | humidity % | barometer mb |
| 20260503224544 | 75 | 157 | 5.0 | 14.0 | 0.00 | 0.00 | 0.00 | 44 | 1014.9 |
| 20260503223043 | 75 | 176 | 8.0 | 12.0 | 0.00 | 0.00 | 0.00 | 44 | 1015.5 |
| 20260503221556 | 75 | 198 | 7.0 | 13.0 | 0.00 | 0.00 | 0.00 | 44 | 1015.8 |
| 20260503220041 | 75 | 199 | 7.0 | 14.0 | 0.00 | 0.00 | 0.00 | 43 | 1015.6 |
| 20260503214541 | 75 | 225 | 5.0 | 12.0 | 0.00 | 0.00 | 0.00 | 44 | 1015.7 |
| 20260503213043 | 75 | 209 | 6.0 | 17.0 | 0.00 | 0.00 | 0.00 | 42 | 1015.9 |
| 20260503211536 | 76 | 194 | 9.0 | 16.0 | 0.00 | 0.00 | 0.00 | 40 | 1016.3 |
| 20260503210034 | 77 | 228 | 9.0 | 16.0 | 0.00 | 0.00 | 0.00 | 41 | 1016.7 |
| 20260503204531 | 76 | 223 | 7.0 | 15.0 | 0.00 | 0.00 | 0.00 | 41 | 1016.9 |
| 20260503203034 | 76 | 204 | 5.0 | 12.0 | 0.00 | 0.00 | 0.00 | 44 | 1017.3 |
| 20260503201526 | 76 | 205 | 5.0 | 20.0 | 0.00 | 0.00 | 0.00 | 42 | 1017.7 |
| 20260503200026 | 75 | 201 | 5.0 | 13.0 | 0.00 | 0.00 | 0.00 | 45 | 1018.1 |
| 20260503194521 | 75 | 190 | 6.0 | 16.0 | 0.00 | 0.00 | 0.00 | 45 | 1018.2 |
| 20260503193034 | 75 | 213 | 7.0 | 14.0 | 0.00 | 0.00 | 0.00 | 44 | 1018.7 |
| 20260503191538 | 75 | 247 | 7.0 | 17.0 | 0.00 | 0.00 | 0.00 | 44 | 1018.8 |
| 20260503190026 | 74 | 175 | 4.0 | 12.0 | 0.00 | 0.00 | 0.00 | 46 | 1019.1 |
| 20260503184512 | 74 | 189 | 9.0 | 14.0 | 0.00 | 0.00 | 0.00 | 47 | 1019.4 |
| 20260503183009 | 74 | 147 | 8.0 | 14.0 | 0.00 | 0.00 | 0.00 | 46 | 1019.7 |
| 20260503181507 | 73 | 137 | 6.0 | 16.0 | 0.00 | 0.00 | 0.00 | 47 | 1020.0 |
| 20260503180006 | 73 | 120 | 5.0 | 10.0 | 0.00 | 0.00 | 0.00 | 47 | 1020.3 |
| 20260503174501 | 72 | 179 | 5.0 | 13.0 | 0.00 | 0.00 | 0.00 | 49 | 1020.5 |
| 20260503173105 | 72 | 217 | 5.0 | 15.0 | 0.00 | 0.00 | 0.00 | 50 | 1020.9 |
| 20260503171557 | 72 | 215 | 2.0 | 11.0 | 0.00 | 0.00 | 0.00 | 48 | 1021.2 |
| 20260503170106 | 71 | 246 | 7.0 | 12.0 | 0.00 | 0.00 | 0.00 | 50 | 1021.5 |
| 20260503100105 | 55 | 204 | 4.0 | 9.0 | 0.00 | 0.00 | 0.00 | 75 | 1021.2 |
| 20260503081545 | 52 | 181 | 0.0 | 2.0 | 0.00 | 0.00 | 0.00 | 83 | 1021.2 |
| 20260503071540 | 52 | 182 | 2.0 | 4.0 | 0.00 | 0.00 | 0.00 | 85 | 1021.4 |
| 20260503054544 | 53 | 173 | 0.0 | 3.0 | 0.00 | 0.00 | 0.00 | 86 | 1021.8 |
| 20260503053031 | 53 | 172 | 0.0 | 3.0 | 0.00 | 0.00 | 0.00 | 86 | 1021.8 |
| 20260503051528 | 53 | 179 | 0.0 | 3.0 | 0.00 | 0.00 | 0.00 | 85 | 1021.8 |
| 20260503050026 | 54 | 175 | 0.0 | 3.0 | 0.00 | 0.00 | 0.00 | 85 | 1021.8 |
| 20260503044536 | 54 | 173 | 0.0 | 2.0 | 0.00 | 0.00 | 0.00 | 85 | 1021.8 |
| 20260503043024 | 55 | 173 | 2.0 | 3.0 | 0.00 | 0.00 | 0.00 | 84 | 1021.8 |
| 20260503041524 | 55 | 173 | 2.0 | 3.0 | 0.00 | 0.00 | 0.00 | 83 | 1021.9 |
| 20260503040023 | 56 | 173 | 1.0 | 3.0 | 0.00 | 0.00 | 0.00 | 82 | 1022.1 |
| 20260503034523 | 56 | 167 | 3.0 | 5.0 | 0.00 | 0.00 | 0.00 | 81 | 1021.9 |
| 20260503033021 | 57 | 154 | 1.0 | 6.0 | 0.00 | 0.00 | 0.00 | 79 | 1021.5 |
| 20260503031520 | 58 | 142 | 2.0 | 4.0 | 0.00 | 0.00 | 0.00 | 77 | 1021.4 |
| 20260503030019 | 59 | 139 | 1.0 | 3.0 | 0.00 | 0.00 | 0.00 | 75 | 1021.2 |
| 20260503024519 | 60 | 139 | 0.0 | 2.0 | 0.00 | 0.00 | 0.00 | 71 | 1021.1 |
| 20260503023018 | 60 | 139 | 0.0 | 2.0 | 0.00 | 0.00 | 0.00 | 70 | 1021.1 |
| 20260503021522 | 62 | 139 | 0.0 | 0.0 | 0.00 | 0.00 | 0.00 | 69 | 1021.0 |
| 20260503020018 | 63 | 139 | 0.0 | 0.0 | 0.00 | 0.00 | 0.00 | 68 | 1020.9 |
| 20260503014516 | 64 | 139 | 0.0 | 0.0 | 0.00 | 0.00 | 0.00 | 62 | 1020.7 |
| 20260503013029 | 65 | 139 | 0.0 | 0.0 | 0.00 | 0.00 | 0.00 | 58 | 1020.6 |
| 20260503011515 | 67 | 139 | 0.0 | 1.0 | 0.00 | 0.00 | 0.00 | 57 | 1020.5 |
| 20260503010015 | 68 | 139 | 0.0 | 2.0 | 0.00 | 0.00 | 0.00 | 49 | 1020.4 |
| 20260503004514 | 69 | 139 | 0.0 | 3.0 | 0.00 | 0.00 | 0.00 | 46 | 1020.4 |
| 20260503003014 | 70 | 109 | 0.0 | 3.0 | 0.00 | 0.00 | 0.00 | 47 | 1020.4 |
| 20260503001512 | 70 | 109 | 1.0 | 3.0 | 0.00 | 0.00 | 0.00 | 43 | 1020.5 |
| 20260503000013 | 70 | 110 | 1.0 | 6.0 | 0.00 | 0.00 | 0.00 | 44 | 1020.5 |
| 20260502234511 | 70 | 92 | 2.0 | 7.0 | 0.00 | 0.00 | 0.00 | 45 | 1020.5 |
| 20260502233026 | 73 | 28 | 1.0 | 5.0 | 0.00 | 0.00 | 0.00 | 43 | 1020.5 |
| 20260502231508 | 73 | 66 | 0.0 | 3.0 | 0.00 | 0.00 | 0.00 | 41 | 1020.7 |
| 20260502230005 | 72 | 54 | 1.0 | 4.0 | 0.00 | 0.00 | 0.00 | 42 | 1020.8 |